User: anonymous   Login
Location: Unspecified
(0.0000°N, 0.0000°E)
Time: 18:23:09
(UTC+00:00)
Language:

STARLINK-31337 - Orbit

View from above orbital plane
View from above orbital plane
View from above satellite
View from above satellite

Ground track
Ground track

The orbit is defined by the following mean orbital elements,

1 58934U          26145.18820007 +.00000000 +00000-0 +45912-4 0 00001
2 58934  53.1604 314.0782 0001150 103.8916 256.2213 15.30189791    05
Epoch (UTC): 25 May 2026 04:31:00
Eccentricity: 0.0001150
inclination: 53.1604°
perigee height: 474 km
apogee height: 476 km
right ascension of ascending node: 314.0782°
argument of perigee: 103.8916°
revolutions per day: 15.30189791
mean anomaly at epoch: 256.2213°

The dashed part of the orbit path shows where the satellite is in the earth's shadow,  

DLR